Location: St. Louis
(38.6270°N, 90.1994°W)
Time: 13:48:23
(UTC-05:00)

ISS - Pass Details

Date: 21 February 2014
Orbit: 402 x 403 km, 51.6° (Epoch: 28 June)

Event Time Altitude Azimuth Distance (km) Brightness Sun altitude
Rises 19:30:26 0° 288° (WNW) 2,332 1.9 -21.2°
Reaches altitude 10° 19:33:34 10° 255° (WSW) 1,478 0.5 -21.8°
Maximum altitude 19:34:52 12° 232° (SW) 1,373 -0.1 -22.1°
Drops below altitude 10° 19:36:11 10° 208° (SSW) 1,487 -0.2 -22.3°
Enters shadow 19:37:29 - 191° (S) 1,772 0.0 -22.6°
